This demonstration page uses our WeatherBlox Daily Observations layout. Learn more.

Left ArrowRight Arrow

Hourly Observations for June 28, 2021

Temp ( °F °C ) Dew Point ( °F °C ) Humidity (%) Winds ( mph kmh ) Pressure ( in mb ) Visibility ( mi km ) Precip ( " mm )
12:51 am 00:51 Clear 74 23.3 54 12.2 50 50 SSE 12 19 29.78 1008 10 16 N/A
1:51 am 01:51 Clear 74 23.3 53 11.7 48 48 SSE 12 19 29.78 1008 10 16 N/A
2:51 am 02:51 Clear 72 22.2 55 12.8 55 55 SSE 8 13 29.77 1008 10 16 N/A
3:51 am 03:51 Clear 71 21.7 54 12.2 55 55 SSE 8 13 29.78 1008 10 16 N/A
4:51 am 04:51 Clear 70 21.1 55 12.8 59 59 SE 8 13 29.79 1009 10 16 N/A
5:51 am 05:51 Sunny 70 21.1 56 13.3 61 61 ESE 7 11 29.80 1009 10 16 N/A
6:51 am 06:51 Sunny 73 22.8 57 13.9 57 57 SSE 10 17 29.81 1010 10 16 N/A
7:51 am 07:51 Sunny 76 24.4 57 13.9 52 52 ESE 9 15 29.82 1010 10 16 N/A
8:51 am 08:51 Sunny 79 26.1 55 12.8 44 44 ESE 8 13 29.81 1010 10 16 N/A
9:51 am 09:51 Sunny 83 28.3 54 12.2 37 37 SE 9 15 29.80 1009 10 16 N/A
10:51 am 10:51 Sunny 86 30 53 11.7 32 32 SE 13 20 29.78 1008 10 16 N/A
11:51 am 11:51 Sunny 88 31.1 52 11.1 29 29 E 8 13 29.75 1008 10 16 N/A
12:51 pm 12:51 Sunny 90 32.2 53 11.7 28 28 S 12 19 29.72 1007 10 16 N/A
1:51 pm 13:51 Partly Cloudy 93 33.9 52 11.1 25 25 S 15 24 29.70 1006 10 16 N/A
2:51 pm 14:51 Mostly Cloudy 91 32.8 54 12.2 28 28 ESE 21 33 29.70 1006 10 16 N/A
3:07 pm 15:07 Partly Cloudy with Nearby Thunderstorms 91 32.8 54 12.2 28 28 SE 21 33 29.59 1002 10 16 N/A
3:51 pm 15:51 Mostly Cloudy with Thunderstorms 88 31.1 52 11.1 29 29 E 17 28 29.72 1006 10 16 N/A
4:38 pm 16:38 Mostly Cloudy with Nearby Thunderstorms 83 28.3 59 15 44 44 ENE 9 15 29.67 1005 10 16 0.00 0.00
4:51 pm 16:51 Mostly Cloudy with Light Rain 81 27.2 61 16.1 51 51 NE 14 22 29.74 1007 10 16 0.00 0.00
5:51 pm 17:51 undefined 79 26.1 64 17.8 60 60 SSE 8 13 29.75 1008 10 16 0.00 0.00
6:51 pm 18:51 Mostly Cloudy 78 25.6 59 15 52 52 E 17 28 29.78 1009 10 16 0.00 0.00
7:51 pm 19:51 Clear 76 24.4 54 12.2 47 47 SE 10 17 29.81 1009 10 16 N/A
8:51 pm 20:51 Clear 73 22.8 55 12.8 53 53 E 7 11 29.84 1011 10 16 N/A
9:51 pm 21:51 Clear 74 23.3 54 12.2 50 50 E 10 17 29.84 1011 10 16 N/A
10:51 pm 22:51 Clear 74 23.3 55 12.8 52 52 ESE 9 15 29.85 1011 10 16 N/A
11:51 pm 23:51 Clear 71 21.7 55 12.8 57 57 E 6 9 29.86 1011 10 16 N/A

Powered by AerisWeather